Carver, MA

1:43 AM EST on February 07, 2016 (GMT -0500)
Plymouth Municipal

Weather History for KPYM - September, 2011

Change the Weather History Date:

Friday, September 16, 2011

  Actual Average Record
Temperature  
Mean Temperature 56 °F -  
Max Temperature 66 °F 70 °F 89 °F (1991)
Min Temperature 46 °F 50 °F 34 °F (1975)
Degree Days  
Heating Degree Days 9    
Growing Degree Days 6 (Base 50)    
Moisture  
Dew Point 40 °F    
Average Humidity 59    
Maximum Humidity 83    
Minimum Humidity 36    
Precipitation  
Precipitation 0.01 in - - ()
Sea Level Pressure  
Sea Level Pressure 30.18 in    
Wind  
Wind Speed 9 mph (NW)    
Max Wind Speed 13 mph    
Max Gust Speed 21 mph    
Visibility 10 miles    
Events      
Averages and records for this station are not official NWS values.
T = Trace of Precipitation, MM = Missing Value Source: NWS Daily Summary

Daily Weather History Graph

Daily Weather History Graph

Search for Another Location

Airport or City:

Trip Planner

Search our weather history database for the weather conditions in past years. The results will help you decide how hot, cold, wet, or windy it might be!

Date:

Astronomy

Sep. 16, 2011 Rise Set
Actual Time 6:23 AM EDT 6:51 PM EDT
Civil Twilight 5:55 AM EDT 7:19 PM EDT
Nautical Twilight 5:22 AM EDT 7:52 PM EDT
Astronomical Twilight 4:48 AM EDT 8:25 PM EDT
Moon 8:34 PM EDT (9/16) 10:31 AM EDT (9/16)
Length of Visible Light 13h 23m
Length of Day
12h 27m
Waning Gibbous, 84% of the Moon is Illuminated
Sep 16
Waning Gibbous
Sep 20
Last Quarter
Sep 27
New
Oct 3
First Quarter
Oct 11
Full

Hourly Weather History & Observations

Time (EDT) Temp. Dew Point Humidity Pressure Visibility Wind Dir Wind Speed Gust Speed Precip Events Conditions
12:52 AM 54.0 °F 44.1 °F 69% 29.97 in 10.0 mi NW 11.5 mph - N/A   Mostly Cloudy
1:52 AM 53.1 °F 41.0 °F 64% 29.99 in 10.0 mi NW 12.7 mph - N/A   Clear
2:52 AM 52.0 °F 39.9 °F 63% 30.02 in 10.0 mi NW 10.4 mph - N/A   Clear
3:52 AM 50.0 °F 39.9 °F 68% 30.04 in 10.0 mi NW 8.1 mph - N/A   Clear
4:52 AM 48.9 °F 39.9 °F 71% 30.06 in 10.0 mi WNW 9.2 mph - N/A   Clear
5:52 AM 48.9 °F 39.0 °F 69% 30.09 in 10.0 mi NW 10.4 mph - N/A   Clear
6:52 AM 48.9 °F 39.0 °F 69% 30.13 in 10.0 mi NW 8.1 mph - N/A   Clear
7:52 AM 51.1 °F 39.0 °F 63% 30.17 in 10.0 mi NW 9.2 mph - N/A   Clear
8:52 AM 54.0 °F 39.0 °F 57% 30.18 in 10.0 mi NNW 9.2 mph - N/A   Clear
10:52 AM 60.1 °F 37.9 °F 44% 30.22 in 10.0 mi WNW 12.7 mph 18.4 mph N/A   Clear
11:52 AM 61.0 °F 37.9 °F 42% 30.22 in 10.0 mi West 10.4 mph 20.7 mph N/A   Clear
12:52 PM 63.0 °F 39.0 °F 41% 30.22 in 10.0 mi WNW 4.6 mph - N/A   Clear
1:52 PM 64.9 °F 39.0 °F 39% 30.21 in 10.0 mi WNW 10.4 mph 17.3 mph N/A   Clear
2:52 PM 64.9 °F 37.9 °F 37% 30.21 in 10.0 mi WNW 8.1 mph - N/A   Clear
4:52 PM 64.9 °F 37.0 °F 36% 30.22 in 10.0 mi NW 8.1 mph - N/A   Clear
5:52 PM 63.0 °F 37.0 °F 38% 30.25 in 10.0 mi WNW 6.9 mph - N/A   Clear
6:52 PM 55.9 °F 44.1 °F 64% 30.26 in 7.0 mi WNW 4.6 mph - N/A   Clear
7:52 PM 51.1 °F 43.0 °F 74% 30.29 in 10.0 mi Calm Calm - N/A   Clear
8:52 PM 50.0 °F 43.0 °F 77% 30.30 in 10.0 mi Calm Calm - N/A   Clear
9:52 PM 48.0 °F 42.1 °F 80% 30.32 in 10.0 mi Calm Calm - N/A   Clear
11:52 PM 46.0 °F 41.0 °F 83% 30.35 in 10.0 mi Calm Calm - N/A   Clear